Wind from 150 at 10 knots

Air temperature 11.0° C
Visibility: greater than 5.4 NM
Dewpoint 7.0° C

Last reported at 2014-Apr-20 11:20 UTC.
Time now 2014-Apr-20 13:34 UTC

Location: N 58°57' W 002°54'.
View on Google Maps.

See reports from other nearby stations

Tides Stations Pressure Air Temp Water Temp Dewpoint Dewpoint depression Visibility Wind Speed Wind Dir Waves Ship positions

  
sailing weather and tide predictions

KIRKWALL AIRPORT weather

date/time (UTC)wind fromknots sea level pressurealtimeterstation pressurevisibilityair tempwater tempwave heightnotes
2014-Apr-20 12:20 160 11 5.412.0
2014-Apr-20 11:50 160 11 5.411.0
2014-Apr-20 11:20 150 10 5.411.0
2014-Apr-20 10:50 150 9 5.411.0
2014-Apr-20 10:20 160 9 5.412.0
2014-Apr-20 09:50 150 8 11.0
2014-Apr-20 09:20 160 7 11.0
2014-Apr-20 08:50 160 8 5.410.0
2014-Apr-20 08:20 160 9 5.410.0
2014-Apr-20 07:50 160 5 5.410.0
2014-Apr-20 07:20 160 10 5.4 9.0
2014-Apr-20 06:50 170 9 8.0
2014-Apr-20 06:20 170 8 5.4 8.0
2014-Apr-20 05:50 160 5 5.4 7.0
2014-Apr-20 05:20 150 6 5.4 6.0
2014-Apr-20 04:50 5.4 5.0
2014-Apr-20 04:20 160 5 5.4 5.0
2014-Apr-20 03:50 170 3 5.4 5.0
2014-Apr-20 03:20 160 7 5.4 6.0
2014-Apr-20 02:50 160 5 5.4 6.0
2014-Apr-20 02:20 160 7 5.4 6.0
2014-Apr-20 01:50 150 11 5.4 6.0
2014-Apr-20 01:20 150 12 5.4 6.0
2014-Apr-20 00:50 150 9 5.4 6.0
2014-Apr-20 00:20 150 8 5.4 7.0
2014-Apr-19 23:50 150 9 5.4 7.0
2014-Apr-19 23:20 150 8 5.4 7.0
2014-Apr-19 22:50 150 9 5.4 6.0
2014-Apr-19 22:20 140 10 5.4 6.0
2014-Apr-19 21:50 140 10 5.4 7.0
2014-Apr-19 21:20 140 9 5.4 7.0
2014-Apr-19 20:50 140 10 5.4 7.0
2014-Apr-19 20:20 140 9 5.4 7.0
2014-Apr-19 19:50 150 9 5.4 8.0
2014-Apr-19 19:20 150 10 5.4 8.0
2014-Apr-19 18:50 150 11 5.4 8.0
2014-Apr-19 18:20 150 12 5.4 9.0
2014-Apr-19 17:50 150 13 5.4 9.0
2014-Apr-19 17:20 150 12 5.410.0
2014-Apr-19 16:50 150 13 5.410.0
2014-Apr-19 16:20 150 13 5.411.0
2014-Apr-19 15:50 150 12 12.0
2014-Apr-19 15:20 160 12 12.0
2014-Apr-19 14:50 170 15 12.0
2014-Apr-19 14:20 160 13 12.0
2014-Apr-19 13:50 160 11 12.0
2014-Apr-19 13:20 170 11 11.0
2014-Apr-19 12:50 160 12 11.0
2014-Apr-19 12:20 160 12 11.0
2014-Apr-19 11:50 160 12 11.0
2014-Apr-19 11:20 150 10 11.0
2014-Apr-19 10:50 140 10 12.0
2014-Apr-19 10:20 140 9 5.412.0
2014-Apr-19 09:50 140 9 5.411.0
2014-Apr-19 09:20 140 9 5.410.0
2014-Apr-19 08:50 140 6 11.0
2014-Apr-19 08:20 160 4 11.0
2014-Apr-19 07:50 190 7 5.410.0
2014-Apr-19 07:20 170 9 5.4 9.0
2014-Apr-19 06:50 170 6 5.4 9.0
2014-Apr-19 06:20 160 5 8.0
2014-Apr-19 05:50 160 4 5.4 8.0
2014-Apr-19 05:20 160 5 5.4 7.0
2014-Apr-19 04:50 170 6 5.4 7.0
2014-Apr-19 04:20 4.9 7.0
2014-Apr-19 03:50 4.9 6.0
2014-Apr-19 03:20 5.4 7.0
2014-Apr-19 02:50 180 7 4.9 7.0
2014-Apr-19 02:20 170 8 5.4 7.0
2014-Apr-19 01:50 160 6 4.9 7.0
2014-Apr-19 01:20 160 2 4.9 6.0
2014-Apr-19 00:50 180 6 5.4 7.0
2014-Apr-19 00:20 160 6 5.4 7.0
2014-Apr-18 23:50 160 7 5.4 8.0
2014-Apr-18 23:20 170 9 5.4 7.0
2014-Apr-18 22:50 160 8 5.4 7.0
2014-Apr-18 22:20 170 9 5.4 7.0
2014-Apr-18 21:50 170 9 5.4 8.0
2014-Apr-18 21:20 160 5 5.4 8.0
2014-Apr-18 20:50 150 6 5.4 7.0
2014-Apr-18 20:20 150 6 5.4 7.0
2014-Apr-18 19:50 150 6 5.4 7.0
2014-Apr-18 19:20 180 5 7.0
2014-Apr-18 18:50 170 7 8.0
2014-Apr-18 18:20 160 10 8.0
2014-Apr-18 17:50 160 11 9.0
2014-Apr-18 17:20 180 12 9.0
2014-Apr-18 16:50 170 10 9.0
2014-Apr-18 16:20 170 10 10.0
2014-Apr-18 15:50 170 12 10.0
2014-Apr-18 15:20 170 12 11.0
2014-Apr-18 14:50 160 11 10.0
2014-Apr-18 14:20 170 12 10.0
2014-Apr-18 13:50 150 12 11.0
2014-Apr-18 13:20 160 10 10.0